Location: Prairie View Elementary School
(39.8322°N, 99.5698°W)
Time: 05:02:23
(UTC+00:00)

Meteor 1-27 Rocket - Pass Details

Date: 08 December 2019
Orbit: 831 x 909 km, 81.3° (Epoch: 18 January)

Event Time Altitude Azimuth Distance (km) Brightness Sun altitude
Exits shadow 11:48:52 33° 325° (NW) 1,477 4.6 -22.0°
Maximum altitude 11:51:18 55° 266° (W) 1,087 3.9 -21.5°
Drops below altitude 10° 11:57:00 10° 190° (S) 2,568 6.2 -20.4°
Sets 11:59:28 0° 186° (S) 3,496 7.0 -20.0°
